Tracking 20626 objects as of 8-Apr-2020
HD Live streaming from Space Station
objects crossing your sky now

MORELOS 1 R/B(PAM-D)

Track MORELOS 1 R/B(PAM-D) now!


NORAD ID: 15832
Int'l Code: 1985-048F
Perigee: 437.2 km
Apogee: 34,354.8 km
Inclination: 25.2 °
Period: 607.7 minutes
Semi major axis: 23767 km
RCS: 2.6667 m2 (large)
Launch date: June 17, 1985
Source: United States (US)
Launch site: AIR FORCE EASTERN TEST RANGE (AFETR)

Note: This is a ROCKET BODY
aabbcc
Your satellite tracking list
Your tracking list is empty




NASA's NSSDC Master Catalog

Two Line Element Set (TLE):
1 15832U 85048F   20098.44440745 -.00000056  00000-0  81392-4 0  9994
2 15832  25.1551 184.9652 7135435 159.4593 258.0630  2.36941288242116
Source of the keplerian elements: AFSPC